Regional Weather Roundup
Issued by NWS

Home | Current Version | Previous Version | Text Only | Print | Product List | Glossary Off
Versions: 1 2 3 4 5 6 7 8 9 10 11 12 13 14 15 16 17 18 19 20 21 22 23 24 25 26 27 28 29 30 31 32 33 34 35 36 37 38 39 40 41 42 43 44 45 46 47 48 49 50

000
ASUS45 KCYS 021510
RWRWY

WYOMING REGIONAL WEATHER ROUNDUP
NATIONAL WEATHER SERVICE CHEYENNE WY
800 AM MST MON MAR 02 2015

NOTE:  "FAIR" INDICATES FEW OR NO CLOUDS BELOW 12,000 FEET
WITH NO SIGNIFICANT WEATHER AND/OR OBSTRUCTIONS TO VISIBILITY.

WYZ001-021600-
YELLOWSTONE NATIONAL PARK

CITY           SKY/WX    TMP DP  RH WIND       PRES   REMARKS
LK YELLOWSTONE   N/A     -6 -11  79 CALM      29.83F
W YELLOWSTONE  NOT AVBL

$$
WYZ002>013-054>058-071-098>099-021600-
NORTHERN WYOMING

CITY           SKY/WX    TMP DP  RH WIND       PRES   REMARKS
JACKSON        MOSUNNY    0  -2  92 VRB7      29.87F WCI -13
CODY           FAIR      16  10  79 S9        29.83S WCI   4
GREYBULL       FAIR      13   8  81 VRB3      29.89S
WORLAND        FAIR      17  12  80 S3        29.87F
SHERIDAN       FAIR       9   3  77 S3        29.85S
BUFFALO          N/A     22   0  38 W6        29.82R WCI  14
GILLETTE       FAIR      20  13  74 S17       29.85F WCI   5
HULETT         FAIR      30  19  64 SW10      29.86R WCI  21
NEWCASTLE      FAIR      28  18  64 SE14G20   29.92F WCI  17

$$
WYZ014>020-022>026-101>103-021600-
CENTRAL WYOMING

CITY           SKY/WX    TMP DP  RH WIND       PRES   REMARKS
BIG PINEY      CLOUDY    15  10  80 CALM      29.85F
PINEDALE       FAIR       9   3  78 NW5       29.85F WCI   0
DUBOIS         FAIR      16   9  73 NW16      29.79F WCI   0
LANDER         FAIR      11   7  84 CALM      29.86F
RIVERTON       FAIR      13   8  81 MISG      29.87F
CASPER         FAIR      22  16  78 SE5       29.85F WCI  16
DOUGLAS        FAIR      27  19  72 SE13      29.87F WCI  16

$$
WYZ021-027>030-104>119-021600-
SOUTHERN WYOMING

CITY           SKY/WX    TMP DP  RH WIND       PRES   REMARKS
EVANSTON       LGT SNOW  23  19  85 E14       29.78F FOG     WCI  11
KEMMERER       LGT SNOW  23  19  86 E3        29.82S
FORT BRIDGER   LGT SNOW  22  21  96 E3        29.85S
ROCK SPRINGS   LGT SNOW  22  18  85 NE3       29.82F FOG
DIXON          LGT SNOW  32  31  96 CALM      29.86F VSB 1
RAWLINS        LGT SNOW  23  20  88 CALM      29.84F FOG
SARATOGA       LGT SNOW  32  30  93 SE8       29.84F WCI  25
LARAMIE        LGT SNOW  23  20  88 SW7       29.85F FOG     WCI  15
CHEYENNE       CLOUDY    20  18  92 S9        29.92F FOG     WCI   9
TORRINGTON     PTSUNNY   30  20  66 SE17G24   29.96F WCI  18
PINE BLUFFS    CLOUDY    27  21  80 S13G18    29.98F WCI  16

$$


USA.gov is the U.S. government's official web portal to all federal, state and local government web resources and services.